When you browse on this site, cookies collect data to enhance your experience and personalize the content and advertising you see.
Visit our Privacy Policy to learn more. By continuing to use the site, you agree to this use of cookies and data.
  • In Lithuania
  • List of Countries
  • For 7 days
  • Water Temperature
  • Weather Map
  • Weather Widgets
  • user-avatar
    Login

    Hourly Weather Wien

    Today, 12 November, Tuesday

    Time Temperature Precipitation Wind Pressure Humidity
    00:00 +5°C° 0 mm 6 mps 739 mmHg 83%
    01:00 +5°C° 0 mm 6 mps 740 mmHg 86%
    02:00 +6°C° 0 mm 5 mps 739 mmHg 87%
    03:00 +6°C° 0 mm 4 mps 739 mmHg 88%
    04:00 +5°C° 0 mm 4 mps 739 mmHg 89%
    05:00 +5°C° 0 mm 3 mps 739 mmHg 88%
    06:00 +5°C° 0 mm 3 mps 739 mmHg 88%
    07:00 +6°C° 0 mm 2 mps 739 mmHg 84%
    08:00 +6°C° 0 mm 2 mps 739 mmHg 80%
    09:00 +6°C° 0 mm 2 mps 739 mmHg 75%
    10:00 +7°C° 0 mm 2 mps 739 mmHg 71%
    11:00 +7°C° 0.1 mm 1 mps 738 mmHg 72%
    12:00 +7°C° 0.1 mm 1 mps 738 mmHg 73%
    13:00 +7°C° 0.1 mm 1 mps 737 mmHg 75%
    14:00 +7°C° 0.9 mm 1 mps 737 mmHg 79%
    15:00 +7°C° 0.9 mm 1 mps 736 mmHg 83%
    16:00 +7°C° 0.9 mm 1 mps 736 mmHg 87%
    17:00 +6°C° 1.2 mm 1 mps 736 mmHg 89%
    18:00 +6°C° 1.2 mm 1 mps 736 mmHg 91%
    19:00 +6°C° 1.2 mm 1 mps 735 mmHg 92%
    20:00 +6°C° 1 mm 1 mps 735 mmHg 93%
    21:00 +6°C° 1 mm 1 mps 735 mmHg 93%
    22:00 +7°C° 1 mm 1 mps 734 mmHg 93%
    23:00 +7°C° 0.1 mm 1 mps 734 mmHg 92%

    Tomorrow, 13 November, Wednesday

    Time Temperature Precipitation Wind Pressure Humidity
    00:00 +6°C° 0.1 mm 2 mps 734 mmHg 91%
    01:00 +6°C° 0.1 mm 2 mps 734 mmHg 90%
    02:00 +6°C° 0 mm 1 mps 733 mmHg 90%
    03:00 +6°C° 0 mm 1 mps 733 mmHg 90%
    04:00 +6°C° 0 mm 1 mps 732 mmHg 90%
    05:00 +6°C° 0 mm 1 mps 732 mmHg 89%
    06:00 +6°C° 0 mm 1 mps 732 mmHg 88%
    07:00 +7°C° 0 mm 1 mps 731 mmHg 87%
    08:00 +6°C° 0.5 mm 2 mps 731 mmHg 88%
    09:00 +6°C° 0.5 mm 2 mps 731 mmHg 89%
    10:00 +6°C° 0.5 mm 2 mps 731 mmHg 90%
    11:00 +4°C° 0.5 mm 3 mps 731 mmHg 89%
    12:00 +4°C° 0.5 mm 4 mps 731 mmHg 88%
    13:00 +2°C° 0.5 mm 5 mps 731 mmHg 87%
    14:00 +2°C° 2.6 mm 5 mps 731 mmHg 88%
    15:00 +2°C° 2.6 mm 6 mps 731 mmHg 90%
    16:00 +1°C° 2.6 mm 6 mps 731 mmHg 91%
    17:00 +2°C° 0.9 mm 6 mps 731 mmHg 91%
    18:00 +2°C° 0.9 mm 7 mps 732 mmHg 91%
    19:00 +2°C° 0.9 mm 7 mps 732 mmHg 91%
    20:00 +2°C° 0.7 mm 7 mps 733 mmHg 90%
    21:00 +2°C° 0.7 mm 7 mps 734 mmHg 89%
    22:00 +2°C° 0.7 mm 7 mps 734 mmHg 89%
    23:00 +2°C° 0.1 mm 5 mps 735 mmHg 87%

    Day after tomorrow, 14 November, Thursday

    Time Temperature Precipitation Wind Pressure Humidity
    00:00 +3°C° 0.1 mm 4 mps 736 mmHg 85%
    01:00 +3°C° 0.1 mm 3 mps 736 mmHg 83%
    02:00 +4°C° 0 mm 2 mps 736 mmHg 84%
    03:00 +5°C° 0 mm 1 mps 737 mmHg 84%
    04:00 +3°C° 0 mm 0 mps 737 mmHg 85%
    05:00 +4°C° 0 mm 1 mps 737 mmHg 85%
    06:00 +3°C° 0 mm 2 mps 737 mmHg 86%
    07:00 +3°C° 0 mm 2 mps 737 mmHg 86%
    08:00 +3°C° 0 mm 3 mps 737 mmHg 83%
    09:00 +4°C° 0 mm 4 mps 737 mmHg 79%
    10:00 +5°C° 0 mm 5 mps 737 mmHg 76%
    11:00 +6°C° 0 mm 5 mps 737 mmHg 74%
    12:00 +7°C° 0 mm 6 mps 737 mmHg 71%
    13:00 +8°C° 0 mm 6 mps 737 mmHg 69%
    14:00 +8°C° 0 mm 6 mps 737 mmHg 72%
    15:00 +7°C° 0 mm 6 mps 737 mmHg 75%
    16:00 +7°C° 0 mm 5 mps 736 mmHg 77%
    17:00 +7°C° 0 mm 5 mps 737 mmHg 79%
    18:00 +7°C° 0 mm 5 mps 737 mmHg 80%
    19:00 +5°C° 0 mm 6 mps 737 mmHg 81%
    20:00 +5°C° 0 mm 6 mps 737 mmHg 83%
    21:00 +7°C° 0 mm 6 mps 737 mmHg 84%
    22:00 +7°C° 0 mm 6 mps 736 mmHg 85%
    23:00 +7°C° 0 mm 6 mps 736 mmHg 85%

    15 November, Friday

    Time Temperature Precipitation Wind Pressure Humidity
    00:00 +7°C° 0 mm 6 mps 736 mmHg 86%
    01:00 +8°C° 0 mm 6 mps 736 mmHg 86%
    02:00 +8°C° 0 mm 6 mps 736 mmHg 86%
    03:00 +8°C° 0 mm 6 mps 736 mmHg 87%
    04:00 +7°C° 0 mm 6 mps 736 mmHg 87%
    05:00 +8°C° 0 mm 6 mps 736 mmHg 87%
    06:00 +8°C° 0 mm 6 mps 736 mmHg 86%
    07:00 +8°C° 0 mm 6 mps 736 mmHg 86%
    08:00 +9°C° 0 mm 7 mps 736 mmHg 82%
    09:00 +10°C° 0 mm 7 mps 736 mmHg 78%
    10:00 +11°C° 0 mm 8 mps 736 mmHg 74%
    11:00 +11°C° 0 mm 8 mps 736 mmHg 71%
    12:00 +12°C° 0 mm 8 mps 736 mmHg 68%
    13:00 +13°C° 0 mm 8 mps 736 mmHg 65%
    14:00 +12°C° 0 mm 7 mps 736 mmHg 68%
    15:00 +12°C° 0 mm 7 mps 736 mmHg 70%
    16:00 +12°C° 0 mm 7 mps 736 mmHg 72%
    17:00 +12°C° 0 mm 7 mps 736 mmHg 73%
    18:00 +11°C° 0 mm 7 mps 737 mmHg 74%
    19:00 +11°C° 0 mm 7 mps 737 mmHg 75%
    20:00 +11°C° 0 mm 7 mps 737 mmHg 75%
    21:00 +11°C° 0 mm 7 mps 737 mmHg 74%
    22:00 +11°C° 0 mm 7 mps 737 mmHg 73%
    23:00 +11°C° 0 mm 7 mps 737 mmHg 73%

    16 November, Saturday

    Time Temperature Precipitation Wind Pressure Humidity
    00:00 +11°C° 0 mm 6 mps 737 mmHg 74%
    01:00 +11°C° 0 mm 6 mps 737 mmHg 74%
    02:00 +11°C° 0 mm 6 mps 738 mmHg 76%
    03:00 +10°C° 0 mm 5 mps 738 mmHg 78%
    04:00 +11°C° 0 mm 4 mps 738 mmHg 80%
    05:00 +10°C° 0 mm 4 mps 739 mmHg 82%
    06:00 +10°C° 0 mm 4 mps 739 mmHg 85%
    07:00 +8°C° 0 mm 4 mps 740 mmHg 87%
    08:00 +10°C° 0 mm 4 mps 740 mmHg 83%
    09:00 +10°C° 0 mm 3 mps 741 mmHg 79%
    10:00 +11°C° 0 mm 3 mps 742 mmHg 75%
    11:00 +11°C° 0 mm 4 mps 741 mmHg 71%
    12:00 +12°C° 0 mm 4 mps 741 mmHg 68%
    13:00 +13°C° 0 mm 5 mps 741 mmHg 64%
    14:00 +12°C° 0 mm 4 mps 742 mmHg 67%
    15:00 +11°C° 0 mm 4 mps 742 mmHg 70%
    16:00 +11°C° 0 mm 3 mps 742 mmHg 73%
    17:00 +11°C° 0 mm 3 mps 742 mmHg 75%
    18:00 +10°C° 0 mm 3 mps 742 mmHg 77%
    19:00 +10°C° 0 mm 3 mps 742 mmHg 79%
    20:00 +10°C° 0 mm 3 mps 742 mmHg 81%
    21:00 +10°C° 0 mm 3 mps 742 mmHg 83%
    22:00 +11°C° 0 mm 3 mps 742 mmHg 85%
    23:00 +10°C° 0 mm 3 mps 741 mmHg 88%

    17 November, Sunday

    Time Temperature Precipitation Wind Pressure Humidity
    00:00 +10°C° 0 mm 3 mps 741 mmHg 90%
    01:00 +10°C° 0 mm 4 mps 740 mmHg 92%
    02:00 +10°C° 0 mm 4 mps 740 mmHg 91%
    03:00 +10°C° 0 mm 4 mps 740 mmHg 89%
    04:00 +10°C° 0 mm 5 mps 740 mmHg 88%
    05:00 +10°C° 0 mm 5 mps 740 mmHg 88%
    06:00 +10°C° 0 mm 5 mps 739 mmHg 87%
    07:00 +10°C° 0 mm 5 mps 739 mmHg 87%
    08:00 +10°C° 0 mm 5 mps 739 mmHg 85%
    09:00 +10°C° 0 mm 5 mps 739 mmHg 84%
    10:00 +11°C° 0 mm 6 mps 739 mmHg 83%
    11:00 +11°C° 0 mm 6 mps 739 mmHg 81%
    12:00 +13°C° 0 mm 6 mps 739 mmHg 79%
    13:00 +13°C° 0 mm 6 mps 738 mmHg 77%
    14:00 +13°C° 0 mm 6 mps 738 mmHg 77%
    15:00 +13°C° 0 mm 5 mps 738 mmHg 76%
    16:00 +13°C° 0 mm 5 mps 737 mmHg 76%
    17:00 +12°C° 0 mm 5 mps 737 mmHg 77%
    18:00 +12°C° 0 mm 5 mps 737 mmHg 77%
    19:00 +12°C° 0 mm 5 mps 738 mmHg 78%
    20:00 +10°C° 0 mm 5 mps 738 mmHg 77%
    21:00 +10°C° 0 mm 6 mps 738 mmHg 76%
    22:00 +10°C° 0 mm 6 mps 738 mmHg 75%
    23:00 +10°C° 0 mm 6 mps 738 mmHg 76%
    Show more